Marshfield, WI

10:33 AM CDT on October 23, 2017 (GMT -0500)
Marshfield Municipal

Weather History for KMFI - August, 2014

Change the Weather History Date:

Saturday, August 23, 2014

  Actual Average Record
Temperature  
Mean Temperature 72 °F -  
Max Temperature 73 °F 76 °F 93 °F (1968)
Min Temperature 71 °F 54 °F 37 °F (1920)
Cooling Degree Days 7    
Growing Degree Days 22 (Base 50)    
Moisture  
Dew Point 71 °F    
Average Humidity 93    
Maximum Humidity 97    
Minimum Humidity 87    
Precipitation  
Precipitation 0.00 in - - ()
Sea Level Pressure  
Sea Level Pressure 30.00 in    
Wind  
Wind Speed 7 mph (East)    
Max Wind Speed 12 mph    
Max Gust Speed -    
Visibility 2 miles    
Events Fog    
Averages and records for this station are not official NWS values.
T = Trace of Precipitation, MM = Missing Value Source: NWS Daily Summary

Daily Weather History Graph

Daily Weather History Graph

Search for Another Location

Airport or City:

Trip Planner

Search our weather history database for the weather conditions in past years. The results will help you decide how hot, cold, wet, or windy it might be!

Date:

Astronomy

Aug. 23, 2014 Rise Set
Actual Time 6:12 AM CDT 7:53 PM CDT
Civil Twilight 5:41 AM CDT 8:23 PM CDT
Nautical Twilight 5:04 AM CDT 9:01 PM CDT
Astronomical Twilight 4:23 AM CDT 9:41 PM CDT
Moon 4:27 AM CDT 6:38 PM CDT
Length of Visible Light 14h 42m
Length of Day
13h 40m
Waning Crescent, 3% of the Moon is Illuminated
Aug 23
Waning Crescent
Aug 25
New
Sep 2
First Quarter
Sep 8
Full
Sep 15
Last Quarter

Hourly Weather History & Observations

Time (CDT) Temp. Dew Point Humidity Pressure Visibility Wind Dir Wind Speed Gust Speed Precip Events Conditions
12:31 AM 73.9 °F 72.0 °F 93% 30.01 in 2.5 mi NNE 4.6 mph - N/A   Overcast
12:54 AM 73.9 °F 72.0 °F 93% 29.99 in 2.5 mi NE 4.6 mph - N/A   Overcast
1:54 AM 73.9 °F 72.0 °F 93% 29.97 in 3.0 mi East 4.6 mph - N/A   Overcast
2:32 AM 73.0 °F 72.0 °F 96% 29.99 in 2.5 mi East 6.9 mph - N/A   Overcast
2:54 AM 73.0 °F 71.1 °F 93% 29.98 in 2.0 mi ESE 4.6 mph - N/A   Overcast
3:29 AM 73.0 °F 71.1 °F 93% 30.01 in 1.2 mi East 4.6 mph - N/A   Overcast
3:36 AM 73.0 °F 71.1 °F 93% 30.01 in 0.8 mi East 5.8 mph - N/A   Overcast
4:09 AM 73.0 °F 71.1 °F 93% 29.99 in 0.8 mi East 5.8 mph - N/A   Overcast
4:54 AM 72.0 °F 71.1 °F 97% 29.96 in 0.5 mi East 6.9 mph - N/A Fog Fog
6:54 AM 71.1 °F 70.0 °F 96% 29.99 in 0.2 mi ESE 3.5 mph - N/A Fog Fog
7:54 AM 71.1 °F 70.0 °F 96% 29.98 in 0.5 mi ENE 5.8 mph - N/A Fog Fog
8:54 AM 71.1 °F 70.0 °F 96% 30.02 in 0.8 mi East 5.8 mph - N/A   Overcast
9:42 AM 72.0 °F 70.0 °F 93% 30.03 in 1.0 mi ENE 6.9 mph - N/A   Overcast
9:54 AM 72.0 °F 70.0 °F 93% 30.01 in 0.8 mi East 8.1 mph - N/A   Overcast
10:26 AM 72.0 °F 70.0 °F 93% 30.02 in 1.2 mi ENE 9.2 mph - N/A   Overcast
10:54 AM 72.0 °F 71.1 °F 97% 30.00 in 2.5 mi East 9.2 mph - N/A   Overcast
11:02 AM 72.0 °F 71.1 °F 97% 30.02 in 3.0 mi East 8.1 mph - N/A   Overcast
11:54 AM 73.0 °F 71.1 °F 93% 30.01 in 3.0 mi ESE 9.2 mph - N/A   Overcast
12:54 PM 73.9 °F 71.1 °F 91% 29.99 in 4.0 mi ESE 9.2 mph - N/A   Overcast
1:54 PM 73.9 °F 71.1 °F 91% 29.99 in 4.0 mi ESE 8.1 mph - N/A   Overcast
2:07 PM 73.9 °F 71.1 °F 91% 30.00 in 4.0 mi ESE 8.1 mph - N/A   Overcast
2:31 PM 73.0 °F 70.0 °F 90% 30.01 in 2.5 mi East 10.4 mph - N/A   Overcast
2:41 PM 73.0 °F 71.1 °F 93% 30.01 in 1.2 mi ESE 8.1 mph - N/A   Overcast
2:54 PM 73.0 °F 71.1 °F 93% 29.99 in 1.0 mi East 10.4 mph - N/A   Overcast
3:13 PM 73.0 °F 71.1 °F 93% 29.99 in 0.8 mi East 8.1 mph - N/A   Overcast
3:46 PM 73.0 °F 71.1 °F 93% 29.98 in 1.0 mi ENE 10.4 mph - N/A   Overcast
3:54 PM 72.0 °F 71.1 °F 97% 29.97 in 1.2 mi East 9.2 mph - N/A   Overcast
4:54 PM 73.0 °F 71.1 °F 93% 29.97 in 1.0 mi East 8.1 mph - N/A   Overcast
5:35 PM 73.0 °F 71.1 °F 93% 29.99 in 1.2 mi East 8.1 mph - N/A   Overcast
5:54 PM 73.0 °F 71.1 °F 93% 29.98 in 1.2 mi East 8.1 mph - N/A   Overcast
6:45 PM 73.0 °F 71.1 °F 93% 30.00 in 0.8 mi East 6.9 mph - N/A   Overcast
6:54 PM 73.0 °F 72.0 °F 96% 29.98 in 0.8 mi East 6.9 mph - N/A   Overcast
7:35 PM 73.0 °F 72.0 °F 96% 30.00 in 1.2 mi East 6.9 mph - N/A   Overcast
7:43 PM 73.0 °F 72.0 °F 96% 30.00 in 3.0 mi ESE 4.6 mph - N/A   Overcast
7:54 PM 73.9 °F 72.0 °F 93% 29.99 in 4.0 mi ESE 5.8 mph - N/A   Overcast
8:06 PM 73.9 °F 72.0 °F 93% 30.00 in 4.0 mi ESE 6.9 mph - N/A   Overcast
8:39 PM 73.9 °F 72.0 °F 93% 30.01 in 4.0 mi ESE 8.1 mph - N/A   Overcast
8:54 PM 73.9 °F 72.0 °F 93% 30.00 in 4.0 mi ESE 8.1 mph - N/A   Mostly Cloudy
9:54 PM 73.0 °F 71.1 °F 93% 30.00 in 4.0 mi East 10.4 mph - N/A   Overcast
10:54 PM 73.0 °F 69.1 °F 87% 30.01 in 5.0 mi ESE 10.4 mph - N/A   Overcast
11:26 PM 73.0 °F 69.1 °F 87% 30.03 in 5.0 mi SE 9.2 mph - N/A   Overcast
11:54 PM 72.0 °F 69.1 °F 91% 30.01 in 5.0 mi SE 11.5 mph - N/A   Mostly Cloudy